Starlink 11683

operational
NORAD ID: 64239 Int'l Des: 2025-119 Owner: SPXS Country: US Constellation: starlink
LEOCIRCULAR

About Starlink 11683

Description loading...

Live Position

Loading 3D Globe...

Upcoming Passes

Altitude History

Altitude vs Time

uPlot chart will show altitude changes over time

Two-Line Element Set

1 64239U 25119G 25353.41878702 .00213048 00000-0 16200-2 0 9996
2 64239 42.9997 332.6501 0000837 321.7941 38.2867 15.70863633 32620
Epoch: Dec 19, 2025 • Age: 21 hours

Current Status

Altitude 355.5 km
Velocity 7.70 km/s
Sub-Earth Point 0.68°N, 42.02°W
Launch Date Jun 3, 2025
Age 0.5 years
Type internet

Technical Details

Classification Payload
Mass 960.00 kg
Dry Mass 910.00 kg
Total Mass 960.00 kg
Length 0.30 m
Diameter 4.10 m
Span 29.00 m
Shape Box + pan
Manufacturer SPXS
Bus Type Starlink V2MD
Phase Status In Orbit
Owner/State SPXS/US

Large Constellations

Loading constellations...